Weather History for Crestview, FL

Change the Weather History Date:

Sunday, November 18, 2012

  Actual Average Record
Temperature  
Mean Temperature 56 °F -  
Max Temperature 69 °F - - ()
Min Temperature 42 °F - - ()
Degree Days  
Heating Degree Days 10    
Growing Degree Days 6 (Base 50)    
Moisture  
Dew Point 42 °F    
Average Humidity 68    
Maximum Humidity 93    
Minimum Humidity 40    
Precipitation  
Precipitation 0.00 in - - ()
Sea Level Pressure  
Sea Level Pressure 30.28 in    
Wind  
Wind Speed 5 mph (NNE)    
Max Wind Speed 10 mph    
Max Gust Speed -    
Visibility 10 miles    
Events      
T = Trace of Precipitation, MM = Missing Value Source: NWS Daily Summary

Daily Weather History Graph

Daily Weather History Graph

Search for Another Location

Airport:

Trip Planner

Search our weather history database for the weather conditions in past years. The results will help you decide how hot, cold, wet, or windy it might be!

Date:

Astronomy

Nov. 18, 2012 Rise Set
Actual Time 6:15 AM CST 4:47 PM CST
Civil Twilight 5:49 AM CST 5:12 PM CST
Nautical Twilight 5:20 AM CST 5:42 PM CST
Astronomical Twilight 4:51 AM CST 6:10 PM CST
Moon 10:45 AM CST (11/18) 10:00 PM CST (11/18)
Length of Visible Light 11h 23m
Length of Day
10h 31m
Waxing Crescent, 30% of the Moon is Illuminated
Nov 18
Waxing Crescent
Nov 20
First Quarter
Nov 28
Full
Dec 6
Last Quarter
Dec 13
New

Hourly Weather History & Observations

Time (CST) Temp. Windchill Dew Point Humidity Pressure Visibility Wind Dir Wind Speed Gust Speed Precip Events Conditions
12:55 AM 43.9 °F 41.3 °F 37.4 °F 78% 30.28 in 10.0 mi North 4.6 mph - N/A   Clear
1:55 AM 44.1 °F 41.5 °F 39.4 °F 84% 30.28 in 10.0 mi North 4.6 mph - N/A   Overcast
2:55 AM 43.9 °F 41.3 °F 37.4 °F 78% 30.27 in 10.0 mi North 4.6 mph - N/A   Scattered Clouds
3:55 AM 42.3 °F 40.5 °F 36.7 °F 81% 30.27 in 10.0 mi North 3.5 mph - N/A   Clear
4:55 AM 44.1 °F 42.5 °F 36.5 °F 75% 30.28 in 10.0 mi North 3.5 mph - N/A   Overcast
5:55 AM 43.7 °F 41.1 °F 35.6 °F 73% 30.30 in 10.0 mi North 4.6 mph - N/A   Clear
6:55 AM 44.4 °F 42.0 °F 36.7 °F 74% 30.30 in 10.0 mi North 4.6 mph - N/A   Partly Cloudy
7:55 AM 48.0 °F - 37.8 °F 68% 30.31 in 10.0 mi NNE 9.2 mph - N/A   Overcast
8:55 AM 54.3 °F - 40.3 °F 59% 30.31 in 10.0 mi NE 9.2 mph - N/A   Clear
9:55 AM 58.8 °F - 42.1 °F 54% 30.30 in 10.0 mi NE 8.1 mph - N/A   Clear
10:55 AM 62.1 °F - 42.4 °F 49% 30.30 in 10.0 mi NNE 8.1 mph - N/A   Clear
11:55 AM 65.1 °F - 43.2 °F 45% 30.28 in 10.0 mi NE 6.9 mph - N/A   Mostly Cloudy
12:55 PM 68.7 °F - 43.7 °F 40% 30.25 in 10.0 mi NNE 10.4 mph - N/A   Clear
1:55 PM 69.4 °F - 44.2 °F 40% 30.23 in 10.0 mi North 6.9 mph - N/A   Clear
2:55 PM 69.3 °F - 44.4 °F 41% 30.24 in 10.0 mi North 8.1 mph - N/A   Partly Cloudy
3:55 PM 67.5 °F - 45.3 °F 45% 30.23 in 10.0 mi NNE 5.8 mph - N/A   Partly Cloudy
4:55 PM 61.9 °F - 45.9 °F 56% 30.25 in 10.0 mi North 3.5 mph - N/A   Clear
5:55 PM 55.0 °F - 47.1 °F 75% 30.26 in 10.0 mi Calm Calm - N/A   Clear
6:55 PM 50.5 °F - 45.9 °F 84% 30.27 in 10.0 mi Calm Calm - N/A   Clear
7:55 PM 50.5 °F - 45.0 °F 81% 30.28 in 10.0 mi NNW 3.5 mph - N/A   Clear
8:55 PM 47.5 °F - 44.2 °F 89% 30.28 in 10.0 mi Calm Calm - N/A   Clear
9:55 PM 48.0 °F - 44.8 °F 89% 30.29 in 10.0 mi Calm Calm - N/A   Clear
10:55 PM 45.1 °F - 43.3 °F 93% 30.28 in 10.0 mi Calm Calm - N/A   Clear
11:55 PM 44.1 °F 42.5 °F 42.1 °F 93% 30.28 in 10.0 mi North 3.5 mph - N/A   Clear